Find KUIPER-00413

NORAD ID: 68928 Int'l Des: 2026-098K Owner: KUIP Country: US Constellation: amazon-leo operational
LEOCIRCULAR

Live-Position

3D-Globus wird geladen...

Über KUIPER-00413

Beschreibung wird geladen...

Nächste Überflüge

Passes for default location (London). Set your location on the main map for personalized predictions.

Höhenverlauf

Loading altitude history...

Zweizeiliger Elementsatz

1 68928U 26098K 26125.83336806 .00056891 00000-0 18205-2 0 9998
2 68928 51.8765 271.8972 0024783 10.4449 227.9609 15.31566696 1306
Epoch: 5. Mai 2026 • Age: 6 hours

Aktueller Status

Höhe 476.7 km
Geschwindigkeit 7.63 km/s
Subsatellitenpunkt 50.79°N, 128.81°E
Startdatum 30. Apr. 2026
Alter 6 days
Typ internet

Technische Details

Klassifizierung Payload
Masse 490.00 kg
Trockenmasse 490.00 kg
Gesamtmasse 490.00 kg
Länge 1.80 m
Durchmesser 0.70 m
Spannweite 5.00 m
Form Box + 2 pan
Hersteller KUIP
Bus-Typ Kuiper
Phasenstatus In Orbit
Besitzer/Staat KUIP/US

Most Searched